Regional Weather Roundup
Issued by NWS State College, PA

Home | Current Version | Previous Version | Graphics & Text | Print | Product List | Glossary On
Versions: 1 2 3 4 5 6 7 8 9 10 11 12 13 14 15 16 17 18 19 20 21 22 23 24 25 26 27 28 29 30 31 32 33 34 35 36 37 38 39 40 41 42 43 44 45 46 47 48 49 50
000
ASUS41 KCTP 132203
RWRCTP

REGIONAL WEATHER ROUNDUP
NATIONAL WEATHER SERVICE STATE COLLEGE PA
600 PM EDT SUN JUL 13 2014

Note: "fair" indicates few or no clouds below 12,000 feet with no
significant weather and/or obstructions to visibility.

* = STATION THAT DOES NOT REPORT PRECIPITATION /E.G. RAIN...SNOW...ETC/
    THUNDER OR FOG.

PAZ002>004-007>009-013>016-020>023-029>032-132300-
WESTERN PENNSYLVANIA

CITY           SKY/WX    TMP DP  RH WIND       PRES   REMARKS
ERIE           MOSUNNY   78  67  68 W12G18    29.86S
MEADVILLE      MOSUNNY   79  67  66 NW10      29.90R
FRANKLIN*      PTSUNNY   75  70  83 NW3       29.92R
NEW CASTLE     LGT RAIN  74  74 100 CALM      29.91S
BEAVER COUNTY  NOT AVBL
BUTLER*        CLOUDY    77  72  83 SW8       29.94R
PITTSBURGH INT CLOUDY    76  70  82 SW9       29.93R
PITTSBURGH     CLOUDY    72  67  84 S12       29.94R
INDIANA*       PTSUNNY   75  72  88 SW9       29.97R
LATROBE        TSTM      72  72 100 MISG      29.97R
WASHINGTON CO* CLOUDY    73  70  88 S7        29.96F
$$

PAZ004>006-010>012-017>019-024>028-033>037-041-042-045-046-049>053-132300-
CENTRAL PENNSYLVANIA

CITY           SKY/WX    TMP DP  RH WIND       PRES   REMARKS
BRADFORD       PTSUNNY   75  68  78 W9        29.91S
DUBOIS         TSTM      70  68  93 SW10      29.93S
CLEARFIELD     TSTM      70  68  93 SW7       29.95R VSB 3/4
JOHNSTOWN      PTSUNNY   74  65  73 SW6       29.97R
ALTOONA        PTSUNNY   80  69  69 SW9       29.93S
STATE COLLEGE  MOSUNNY   79  73  83 SW12      29.88F
WILLIAMSPORT   MOSUNNY   83  66  56 S15G23    29.82F
SELINSGROVE    PTSUNNY   83  71  67 S7G20     29.87F
FT INDIANTOWN  PTSUNNY   85  72  65 S8        29.89F
CAPITAL CITY   PTSUNNY   86  70  58 S9        29.88F
HARRISBURG     CLOUDY    88  69  53 VRB6      29.88F
YORK           PTSUNNY   85  69  58 S8        29.90F
$$

PAZ038>040-043-044-047-048-054-055-060>062-067>071-132300-
EASTERN PENNSYLVANIA

CITY           SKY/WX    TMP DP  RH WIND       PRES   REMARKS
SCRANTON       MOSUNNY   83  69  62 SW10      29.87F
MOUNT POCONO   PTSUNNY   78  68  71 S12G22    29.96F
ALLENTOWN      PTSUNNY   86  70  58 SW13G20   29.90F
QUAKERTOWN*    MOCLDY    84  72  65 S9        29.92F
READING        MOSUNNY   85  72  65 S16       29.89F
LANCASTER      MOSUNNY   85  73  67 S13       29.90F
COATESVILLE    MOCLDY    82  75  78 S7        29.95S
POTTSTOWN      PTSUNNY   85  72  65 SW10G20   29.93F
BLUE BELL      PTSUNNY   88  72  58 S8G16     29.91F
DOYLESTOWN     PTSUNNY   85  70  60 S6        29.91S
WILLOW GROVE   NOT AVBL
NORTH PHILA    MOSUNNY   90  66  45 SW13      29.91F
PHILADELPHIA   PTSUNNY   90  68  48 SW8       29.91F
$$



USA.gov is the U.S. government's official web portal to all federal, state and local government web resources and services.